TimeMST,TemperatureF,Dew PointF,Humidity,Sea Level PressureIn,VisibilityMPH,Wind Direction,Wind SpeedMPH,Gust SpeedMPH,PrecipitationIn,Events,Conditions,WindDirDegrees,DateUTC
12:53 AM,54.0,36.0,51,29.72,10.0,South,18.4,26.5,N/A,,Mostly Cloudy,170,2012-11-18 07:53:00
1:53 AM,48.9,39.0,69,29.77,10.0,South,10.4,28.8,0.05,Rain,Light Rain,180,2012-11-18 08:53:00
2:53 AM,46.9,39.0,74,29.76,10.0,South,11.5,-,N/A,,Overcast,170,2012-11-18 09:53:00
3:53 AM,48.9,37.9,66,29.77,10.0,South,12.7,-,N/A,,Overcast,190,2012-11-18 10:53:00
4:53 AM,48.9,37.9,66,29.78,10.0,SSW,12.7,-,N/A,,Overcast,200,2012-11-18 11:53:00
5:53 AM,42.1,37.9,85,29.86,7.0,West,16.1,-,0.02,Rain,Light Rain,260,2012-11-18 12:53:00
6:53 AM,39.9,35.1,83,29.91,7.0,SW,13.8,-,0.01,Rain,Light Rain,230,2012-11-18 13:53:00
7:12 AM,39.2,33.8,81,29.98,9.0,WSW,10.4,-,0.01,Rain,Light Rain,240,2012-11-18 14:12:00
7:53 AM,35.1,30.9,85,29.96,2.0,SW,8.1,-,0.07,Snow,Light Snow,230,2012-11-18 14:53:00
8:01 AM,35.6,30.2,81,30.00,1.0,SW,5.8,-,0.02,Snow,Light Snow,220,2012-11-18 15:01:00
8:12 AM,35.6,30.2,81,30.01,3.0,SSW,4.6,-,0.02,Snow,Light Snow,210,2012-11-18 15:12:00
8:53 AM,36.0,32.0,86,29.96,10.0,South,8.1,-,0.02,,Overcast,170,2012-11-18 15:53:00
9:53 AM,39.9,35.1,83,29.97,10.0,WSW,5.8,-,N/A,,Overcast,240,2012-11-18 16:53:00
10:53 AM,42.1,37.0,82,29.99,10.0,Calm,Calm,-,N/A,,Overcast,0,2012-11-18 17:53:00
11:53 AM,45.0,37.0,74,29.98,10.0,South,4.6,-,0.00,,Mostly Cloudy,190,2012-11-18 18:53:00
12:29 PM,46.4,35.6,66,30.03,10.0,Calm,Calm,-,N/A,,Overcast,0,2012-11-18 19:29:00
12:53 PM,46.0,35.1,66,29.96,10.0,Calm,Calm,-,N/A,,Overcast,0,2012-11-18 19:53:00
1:00 PM,46.4,35.6,66,30.03,10.0,Calm,Calm,-,N/A,,Overcast,0,2012-11-18 20:00:00
1:53 PM,46.0,36.0,68,29.96,10.0,South,3.5,-,0.00,Rain,Light Rain,190,2012-11-18 20:53:00
2:53 PM,46.9,35.1,63,29.97,10.0,SSW,5.8,-,0.00,,Mostly Cloudy,200,2012-11-18 21:53:00
3:53 PM,46.0,36.0,68,29.99,10.0,SSW,4.6,-,0.00,,Overcast,210,2012-11-18 22:53:00
4:53 PM,43.0,36.0,76,30.00,10.0,SSE,5.8,-,0.01,,Mostly Cloudy,160,2012-11-18 23:53:00
5:53 PM,41.0,35.1,79,30.03,10.0,SE,8.1,-,N/A,,Mostly Cloudy,140,2012-11-19 00:53:00
6:53 PM,39.9,34.0,79,30.04,10.0,East,5.8,-,N/A,,Partly Cloudy,80,2012-11-19 01:53:00
7:53 PM,39.9,35.1,83,30.05,10.0,South,4.6,-,N/A,,Overcast,170,2012-11-19 02:53:00
8:53 PM,42.1,35.1,76,30.06,10.0,South,9.2,-,N/A,,Mostly Cloudy,180,2012-11-19 03:53:00
9:53 PM,42.1,36.0,79,30.09,5.0,SW,8.1,-,0.02,Rain,Light Rain,220,2012-11-19 04:53:00
10:53 PM,42.1,37.0,82,30.06,10.0,SE,9.2,-,0.02,,Overcast,140,2012-11-19 05:53:00
11:53 PM,42.1,37.0,82,30.06,10.0,Variable,4.6,-,N/A,,Overcast,0,2012-11-19 06:53:00